sat.trackr.live / text

‹ back to catalog

STARLINK-4534

NORAD 53395 · 2022-097H

PAYLOAD ACTIVE UNKNOWN

§ Identity

Operator
Country
US
Launch date
2022-08-10
Launch site
AFETR
Launch vehicle
Mass (kg)
RCS (m²)

Purposes: comms

External: N2YO · Heavens-Above · Gunter

§ Orbital elements

Epoch: 2026-09-19T15:28:05.586240Z

Period
94.01 min
Inclination
53.1608°
Eccentricity
0.0001412
Mean motion
15.31702465 rev/d
Perigee alt
469.8 km
Apogee alt
471.7 km
Semi-major
6,848.9 km
B*
3.8116e-5
RAAN
322.8820°
Arg perigee
81.2840°
Mean anomaly
278.8322°
Rev number
22,793

§ Raw data

STARLINK-45341 53395U 22097H   26262.64450910  .00000818  00000+0  38116-4 0  99912 53395  53.1608 322.8820 0001412  81.2840 278.8322 15.31702465227935

JSON: /api/v1/satellites/53395 · /tle

For live sub-satellite position, see the globe view (requires WebGL).

§ Visibility from observer

Set your observer location to see the next 7 days of passes ≥ 10°. The values pass through the URL so the page stays shareable.

No JS? Fill the form by hand. The geolocation button needs JavaScript.